Ypsilanti, MI

10:06 PM EDT on May 29, 2017 (GMT -0400)
Willow Run

Weather History for KYIP - December, 2012

Change the Weather History Date:

Saturday, December 29, 2012

  Actual Average Record
Temperature  
Mean Temperature 27 °F -  
Max Temperature 30 °F 32 °F 60 °F (1984)
Min Temperature 21 °F 20 °F 3 °F (1976)
Degree Days  
Heating Degree Days 38    
Moisture  
Dew Point 23 °F    
Average Humidity 80    
Maximum Humidity 86    
Minimum Humidity 71    
Precipitation  
Precipitation 0.01 in - - ()
Sea Level Pressure  
Sea Level Pressure 29.87 in    
Wind  
Wind Speed 8 mph (North)    
Max Wind Speed 12 mph    
Max Gust Speed -    
Visibility 4 miles    
Events Snow    
Averages and records for this station are not official NWS values.
T = Trace of Precipitation, MM = Missing Value Source: NWS Daily Summary

Daily Weather History Graph

Daily Weather History Graph

Search for Another Location

Airport or City:

Trip Planner

Search our weather history database for the weather conditions in past years. The results will help you decide how hot, cold, wet, or windy it might be!

Date:

Astronomy

Dec. 29, 2012 Rise Set
Actual Time 8:02 AM EST 5:10 PM EST
Civil Twilight 7:30 AM EST 5:42 PM EST
Nautical Twilight 6:55 AM EST 6:17 PM EST
Astronomical Twilight 6:21 AM EST 6:51 PM EST
Moon 6:44 PM EST (12/29) 8:33 AM EST (12/29)
Length of Visible Light 10h 11m
Length of Day
9h 07m
Full, 98% of the Moon is Illuminated
Dec 29
Full
Jan 4
Last Quarter
Jan 11
New
Jan 18
First Quarter
Jan 26
Full

Hourly Weather History & Observations

Time (EST) Temp. Windchill Dew Point Humidity Pressure Visibility Wind Dir Wind Speed Gust Speed Precip Events Conditions
12:17 AM 28.4 °F 20.4 °F 23.0 °F 80% 29.92 in 7.0 mi NE 8.1 mph - N/A   Overcast
12:53 AM 28.9 °F 21.9 °F 23.0 °F 78% 29.92 in 7.0 mi ENE 6.9 mph - N/A   Overcast
1:31 AM 28.4 °F 21.2 °F 23.0 °F 80% 29.89 in 6.0 mi ENE 6.9 mph - N/A   Haze
1:53 AM 28.9 °F 21.9 °F 24.1 °F 82% 29.90 in 4.0 mi ENE 6.9 mph - 0.00 in Snow Light Snow
2:03 AM 28.4 °F 21.2 °F 24.8 °F 86% 29.88 in 2.5 mi ENE 6.9 mph - 0.00 in Snow Light Snow
2:13 AM 28.4 °F 21.2 °F 24.8 °F 86% 29.87 in 1.5 mi NE 6.9 mph - 0.00 in Snow Light Snow
2:34 AM 28.4 °F 20.4 °F 24.8 °F 86% 29.87 in 0.8 mi NE 8.1 mph - 0.00 in Snow Light Snow
2:38 AM 28.4 °F 19.7 °F 24.8 °F 86% 29.87 in 1.0 mi NE 9.2 mph - 0.00 in Snow Light Snow
2:46 AM 28.4 °F 21.2 °F 24.8 °F 86% 29.87 in 1.0 mi NE 6.9 mph - 0.00 in Snow Light Snow
2:53 AM 28.9 °F 21.9 °F 24.1 °F 82% 29.89 in 1.0 mi NE 6.9 mph - 0.00 in Snow Light Snow
3:24 AM 28.4 °F 20.4 °F 24.8 °F 86% 29.87 in 0.8 mi NE 8.1 mph - 0.00 in Snow Light Snow
3:49 AM 28.4 °F 19.7 °F 23.0 °F 80% 29.86 in 1.0 mi NE 9.2 mph - 0.00 in Snow Light Snow
3:53 AM 28.0 °F 19.3 °F 23.0 °F 81% 29.87 in 1.0 mi NE 9.2 mph - 0.00 in Snow Light Snow
4:53 AM 28.0 °F 20.0 °F 23.0 °F 81% 29.85 in 0.8 mi NE 8.1 mph - 0.00 in Snow Light Snow
5:14 AM 28.4 °F 20.4 °F 23.0 °F 80% 29.83 in 1.0 mi NE 8.1 mph - 0.00 in Snow Light Snow
5:42 AM 28.4 °F 19.7 °F 23.0 °F 80% 29.82 in 0.8 mi NNE 9.2 mph - 0.00 in Snow Light Snow
5:53 AM 28.0 °F 19.3 °F 23.0 °F 81% 29.83 in 0.8 mi NNE 9.2 mph - 0.00 in Snow Light Snow
6:04 AM 28.4 °F 20.4 °F 23.0 °F 80% 29.81 in 1.0 mi NNE 8.1 mph - 0.00 in Snow Light Snow
6:53 AM 28.0 °F 20.8 °F 24.1 °F 85% 29.84 in 1.8 mi North 6.9 mph - 0.00 in Snow Light Snow
7:06 AM 28.4 °F 20.4 °F 24.8 °F 86% 29.82 in 2.0 mi North 8.1 mph - 0.00 in Snow Light Snow
7:17 AM 28.4 °F 19.7 °F 24.8 °F 86% 29.82 in 2.0 mi North 9.2 mph - 0.00 in Snow Light Snow
7:41 AM 28.4 °F 21.2 °F 24.8 °F 86% 29.81 in 1.5 mi North 6.9 mph - 0.00 in Snow Light Snow
7:53 AM 28.9 °F 21.9 °F 24.1 °F 82% 29.83 in 2.0 mi North 6.9 mph - 0.00 in Snow Light Snow
8:05 AM 28.4 °F 20.4 °F 24.8 °F 86% 29.81 in 1.5 mi North 8.1 mph - 0.00 in Snow Light Snow
8:26 AM 28.4 °F 21.2 °F 24.8 °F 86% 29.80 in 1.2 mi North 6.9 mph - 0.00 in Snow Light Snow
8:53 AM 28.0 °F 20.8 °F 24.1 °F 85% 29.82 in 1.5 mi North 6.9 mph - 0.00 in Snow Light Snow
9:13 AM 28.4 °F 21.2 °F 24.8 °F 86% 29.81 in 3.0 mi North 6.9 mph - 0.00 in Snow Light Snow
9:50 AM 30.2 °F 23.4 °F 24.8 °F 80% 29.82 in 6.0 mi North 6.9 mph - 0.00 in   Haze
9:53 AM 30.0 °F 23.2 °F 24.1 °F 79% 29.83 in 6.0 mi North 6.9 mph - 0.00 in   Haze
10:53 AM 30.9 °F 23.5 °F 24.1 °F 76% 29.85 in 10.0 mi North 8.1 mph - N/A   Overcast
11:53 AM 30.9 °F 23.5 °F 24.1 °F 76% 29.85 in 5.0 mi NNW 8.1 mph - N/A   Haze
12:53 PM 30.9 °F 22.8 °F 23.0 °F 72% 29.84 in 4.0 mi NNW 9.2 mph - 0.00 in   Haze
1:03 PM 30.2 °F 22.6 °F 23.0 °F 75% 29.82 in 3.0 mi NW 8.1 mph - 0.00 in Snow Light Snow
1:53 PM 30.9 °F 22.8 °F 23.0 °F 72% 29.85 in 3.0 mi NW 9.2 mph - 0.01 in Snow Light Snow
2:10 PM 30.2 °F 21.9 °F 23.0 °F 75% 29.83 in 3.0 mi NW 9.2 mph - 0.00 in Snow Light Snow
2:38 PM 30.2 °F 21.3 °F 23.0 °F 75% 29.83 in 2.5 mi NW 10.4 mph - 0.00 in Snow Light Snow
2:53 PM 30.9 °F 21.7 °F 23.0 °F 72% 29.86 in 2.0 mi NW 11.5 mph - 0.00 in Snow Light Snow
3:22 PM 30.2 °F 20.8 °F 23.0 °F 75% 29.85 in 3.0 mi NW 11.5 mph - 0.00 in Snow Light Snow
3:53 PM 30.9 °F 22.8 °F 23.0 °F 72% 29.88 in 9.0 mi NW 9.2 mph - 0.00 in   Overcast
4:53 PM 30.9 °F 22.8 °F 23.0 °F 72% 29.91 in 10.0 mi NW 9.2 mph - N/A   Overcast
6:53 PM 30.0 °F 20.5 °F 24.1 °F 79% 29.96 in 10.0 mi NW 11.5 mph - 0.00 in   Overcast
7:43 PM 28.4 °F 18.5 °F 21.2 °F 74% 29.96 in 10.0 mi WNW 11.5 mph - N/A   Overcast
7:53 PM 28.0 °F 19.3 °F 21.9 °F 78% 29.98 in 10.0 mi NW 9.2 mph - N/A   Overcast
8:53 PM 27.0 °F 17.3 °F 19.0 °F 72% 30.00 in 10.0 mi NW 10.4 mph - N/A   Overcast
9:53 PM 24.1 °F 16.0 °F 17.1 °F 75% 30.02 in 10.0 mi WNW 6.9 mph - N/A   Overcast
10:53 PM 24.1 °F 13.7 °F 16.0 °F 71% 30.05 in 10.0 mi WNW 10.4 mph - N/A   Clear
11:53 PM 21.9 °F 11.7 °F 15.1 °F 75% 30.07 in 10.0 mi WNW 9.2 mph - N/A   Clear